H1 CPF 2 NER 2023 9 1 9 244 01 glonass143 H2 2007501 9143 46805 2023 9 1 0 0 0 2023 9 4 23 45 0 900 1 1 0 0 0 1 H9 10 0 60188 0.00000 0 11063345.820 22852064.900 2376065.282 10 0 60188 900.00000 0 11233718.425 22875157.791 -834574.055 10 0 60188 1800.00000 0 11213225.069 22541317.809 -4028979.497 10 0 60188 2700.00000 0 10957386.713 21883540.876 -7145006.360 10 0 60188 3600.00000 0 10430313.944 20945041.310 -10122017.368 10 0 60188 4500.00000 0 9606471.942 19777352.617 -12902070.533 10 0 60188 5400.00000 0 8472015.531 18438095.880 -15431054.539 10 0 60188 6300.00000 0 7025636.310 16988510.376 -17659748.739 10 0 60188 7200.00000 0 5278884.714 15490851.208 -19544786.408 10 0 60188 8100.00000 0 3255952.027 14005764.130 -21049502.149 10 0 60188 9000.00000 0 992920.382 12589748.530 -22144646.766 10 0 60188 9900.00000 0 -1463488.762 11292815.564 -22808955.747 10 0 60188 10800.00000 0 -4057616.042 10156439.858 -23029560.551 10 0 60188 11700.00000 0 -6726945.015 9211890.487 -22802235.071 10 0 60188 12600.00000 0 -9404475.969 8479010.767 -22131472.891 10 0 60188 13500.00000 0 -12021294.161 7965497.214 -21030394.266 10 0 60188 14400.00000 0 -14509225.830 7666706.891 -19520485.026 10 0 60188 15300.00000 0 -16803471.689 7566000.041 -17631172.781 10 0 60188 16200.00000 0 -18845108.676 7635602.314 -15399248.974 10 0 60188 17100.00000 0 -20583356.201 7837949.049 -12868148.184 10 0 60188 18000.00000 0 -21977513.097 8127453.770 -10087098.963 10 0 60188 18900.00000 0 -22998485.202 8452625.265 -7110162.922 10 0 60188 19800.00000 0 -23629840.785 8758442.984 -3995180.971 10 0 60188 20700.00000 0 -23868350.742 8988889.695 -802647.528 10 0 60188 21600.00000 0 -23723992.181 9089533.840 2405465.155 10 0 60188 22500.00000 0 -23219416.462 9010052.082 5566909.510 10 0 60188 23400.00000 0 -22388905.184 8706585.204 8620368.411 10 0 60188 24300.00000 0 -21276858.936 8143827.715 11506640.810 10 0 60188 25200.00000 0 -19935883.000 7296762.856 14169784.421 10 0 60188 26100.00000 0 -18424550.807 6151969.686 16558193.602 10 0 60188 27000.00000 0 -16804939.064 4708446.902 18625592.190 10 0 60188 27900.00000 0 -15140037.606 2977918.240 20331922.761 10 0 60188 28800.00000 0 -13491141.949 984605.817 21644115.933 10 0 60188 29700.00000 0 -11915336.832 -1235520.196 22536725.685 10 0 60188 30600.00000 0 -10463175.026 -3635985.649 22992419.113 10 0 60188 31500.00000 0 -9176647.447 -6161499.959 23002311.725 10 0 60188 32400.00000 0 -8087528.426 -8750018.609 22566142.019 10 0 60188 33300.00000 0 -7216164.461 -11335096.636 21692281.932 10 0 60188 34200.00000 0 -6570756.528 -13848436.908 20397582.501 10 0 60188 35100.00000 0 -6147165.595 -16222528.801 18707057.037 10 0 60188 36000.00000 0 -5929249.363 -18393268.745 16653406.919 10 0 60188 36900.00000 0 -5889716.198 -20302454.398 14276398.140 10 0 60188 37800.00000 0 -5991460.520 -21900048.992 11622099.512 10 0 60188 38700.00000 0 -6189323.679 -23146121.475 8741996.310 10 0 60188 39600.00000 0 -6432206.173 -24012381.107 5691995.762 10 0 60188 40500.00000 0 -6665441.951 -24483241.873 2531343.241 10 0 60188 41400.00000 0 -6833334.128 -24556371.512 -678529.941 10 0 60188 42300.00000 0 -6881744.138 -24242701.602 -3875204.448 10 0 60188 43200.00000 0 -6760623.794 -23565897.837 -6996492.691 10 0 60188 44100.00000 0 -6426381.808 -22561312.580 -9981655.962 10 0 60188 45000.00000 0 -5843983.163 -21274463.766 -12772594.276 10 0 60188 45900.00000 0 -4988690.990 -19759104.430 -15314984.845 10 0 60188 46800.00000 0 -3847375.717 -18074964.543 -17559346.209 10 0 60188 47700.00000 0 -2419334.750 -16285260.668 -19462006.623 10 0 60188 48600.00000 0 -716586.679 -14454078.729 -20985957.441 10 0 60188 49500.00000 0 1236373.598 -12643740.256 -22101574.737 10 0 60188 50400.00000 0 3403349.636 -10912263.003 -22787195.144 10 0 60188 51300.00000 0 5737716.466 -9311022.475 -23029534.979 10 0 60188 52200.00000 0 8184139.343 -7882712.112 -22823944.852 10 0 60188 53100.00000 0 10680666.865 -6659687.071 -22174495.233 10 0 60188 54000.00000 0 13161111.529 -5662760.094 -21093891.717 10 0 60188 54900.00000 0 15557618.738 -4900498.773 -19603222.029 10 0 60188 55800.00000 0 17803317.358 -4369052.344 -17731539.992 10 0 60188 56700.00000 0 19834941.622 -4052513.749 -15515294.827 10 0 60188 57600.00000 0 21595315.324 -3923800.215 -12997617.084 10 0 60188 58500.00000 0 23035595.015 -3946013.781 -10227475.332 10 0 60188 59400.00000 0 24117179.077 -4074223.021 -7258720.235 10 0 60188 60300.00000 0 24813203.515 -4257589.584 -4149034.823 10 0 60188 61200.00000 0 25109562.707 -4441748.714 -958811.689 10 0 60188 62100.00000 0 25005413.267 -4571342.348 2250020.789 10 0 60188 63000.00000 0 24513140.906 -4592597.166 5415200.188 10 0 60188 63900.00000 0 23657792.625 -4455838.176 8475336.179 10 0 60188 64800.00000 0 22475998.934 -4117831.436 11371097.671 10 0 60188 65700.00000 0 21014431.987 -3543856.811 14046358.070 10 0 60188 66600.00000 0 19327864.692 -2709423.204 16449276.814 10 0 60188 67500.00000 0 17476912.258 -1601553.780 18533296.763 10 0 60188 68400.00000 0 15525550.484 -219586.752 20258038.909 10 0 60188 69300.00000 0 13538514.083 1424542.541 21590077.844 10 0 60188 70200.00000 0 11578682.946 3306550.981 22503583.876 10 0 60188 71100.00000 0 9704564.419 5390579.257 22980820.103 10 0 60188 72000.00000 0 7967975.588 7630454.922 23012485.370 10 0 60188 72900.00000 0 6412021.058 9971395.942 22597896.789 10 0 60188 73800.00000 0 5069449.535 12352085.544 21745008.213 10 0 60188 74700.00000 0 3961456.929 14707033.719 20470263.930 10 0 60188 75600.00000 0 3096985.251 16969128.671 18798289.673 10 0 60188 76500.00000 0 2472546.184 19072273.327 16761425.960 10 0 60188 77400.00000 0 2072576.478 20953998.007 14399111.696 10 0 60188 78300.00000 0 1870310.159 22557940.824 11757128.839 10 0 60188 79200.00000 0 1829130.870 23836092.438 8886721.741 10 0 60188 80100.00000 0 1904347.371 24750710.968 5843607.470 10 0 60188 81000.00000 0 2045317.151 25275826.395 2686895.835 10 0 60188 81900.00000 0 2197828.098 25398270.609 -522060.040 10 0 60188 82800.00000 0 2306636.897 25118189.077 -3720859.995 10 0 60188 83700.00000 0 2318055.859 24449011.886 -6847276.134 10 0 60188 84600.00000 0 2182477.515 23416884.813 -9840470.688 10 0 60188 85500.00000 0 1856728.771 22059583.997 -12642187.765 10 0 60189 0.00000 0 1306153.576 20424959.917 -15197894.650 10 0 60189 900.00000 0 506334.171 18568975.307 -17457850.978 10 0 60189 1800.00000 0 -555622.495 16553421.995 -19378080.855 10 0 60189 2700.00000 0 -1880289.826 14443410.033 -20921233.202 10 0 60189 3600.00000 0 -3455652.197 12304736.929 -22057309.881 10 0 60189 4500.00000 0 -5257373.787 10201246.715 -22764248.907 10 0 60189 5400.00000 0 -7249595.211 8192289.639 -23028351.389 10 0 60189 6300.00000 0 -9386225.291 6330388.572 -22844544.258 10 0 60189 7200.00000 0 -11612674.445 4659209.264 -22216474.101 10 0 60189 8100.00000 0 -13867957.590 3211918.493 -21156430.695 10 0 60189 9000.00000 0 -16087079.045 2009997.636 -19685102.097 10 0 60189 9900.00000 0 -18203599.968 1062559.945 -17831166.408 10 0 60189 10800.00000 0 -20152281.329 366198.509 -15630728.380 10 0 60189 11700.00000 0 -21871692.181 -94630.444 -13126612.059 10 0 60189 12600.00000 0 -23306674.430 -346706.731 -10367523.419 10 0 60189 13500.00000 0 -24410561.334 -426667.522 -7407099.514 10 0 60189 14400.00000 0 -25147057.313 -379210.349 -4302862.843 10 0 60189 15300.00000 0 -25491700.817 -254955.026 -1115101.581 10 0 60189 16200.00000 0 -25432849.606 -108055.815 2094302.287 10 0 60189 17100.00000 0 -24972147.821 6334.388 5263073.925 10 0 60189 18000.00000 0 -24124455.962 34640.106 8329752.161 10 0 60189 18900.00000 0 -22917247.414 -72629.658 11234878.105 10 0 60189 19800.00000 0 -21389497.341 -358549.437 13922142.997 10 0 60189 20700.00000 0 -19590110.858 -857718.923 16339473.309 10 0 60189 21600.00000 0 -17575956.387 -1594565.046 18440032.670 10 0 60189 22500.00000 0 -15409586.184 -2582076.188 20183121.944 10 0 60189 23400.00000 0 -13156738.778 -3821022.128 21534960.835 10 0 60189 24300.00000 0 -10883726.706 -5299693.060 22469336.764 10 0 60189 25200.00000 0 -8654817.404 -6994169.600 22968109.238 10 0 60189 26100.00000 0 -6529715.170 -8869113.702 23021560.487 10 0 60189 27000.00000 0 -4561247.813 -10879048.933 22628585.928 10 0 60189 27900.00000 0 -2793353.057 -12970078.382 21796720.708 10 0 60189 28800.00000 0 -1259447.531 -15081970.216 20542001.429 10 0 60189 29700.00000 0 18754.600 -17150525.585 18888665.022 10 0 60189 30600.00000 0 1031924.745 -19110131.544 16868689.628 10 0 60189 31500.00000 0 1783276.651 -20896393.552 14521185.267 10 0 60189 32400.00000 0 2288190.564 -22448738.269 11891644.983 10 0 60189 33300.00000 0 2573320.763 -23712878.138 9031069.896 10 0 60189 34200.00000 0 2675224.131 -24643034.314 5994984.397 10 0 60189 35100.00000 0 2638567.784 -25203824.280 2842360.055 10 0 60189 36000.00000 0 2513991.740 -25371734.057 -365530.985 10 0 60189 36900.00000 0 2355717.499 -25136112.201 -3566310.595 10 0 60189 37800.00000 0 2219004.510 -24499642.793 -6697713.469 10 0 60189 38700.00000 0 2157563.189 -23478276.582 -9698805.671 10 0 60189 39600.00000 0 2221035.237 -22100622.494 -12511178.234 10 0 60189 40500.00000 0 2452649.270 -20406824.580 -15080091.692 10 0 60189 41400.00000 0 2887152.342 -18446971.385 -17355548.396 10 0 60189 42300.00000 0 3549106.198 -16279104.534 -19293271.061 10 0 60189 43200.00000 0 4451621.496 -13966910.248 -20855568.076 10 0 60189 44100.00000 0 5595584.562 -11577190.735 -22012068.550 10 0 60189 45000.00000 0 6969410.258 -9177221.513 -22740312.823 10 0 60189 45900.00000 0 8549332.180 -6832105.266 -23026187.199 10 0 60189 46800.00000 0 10300218.715 -4602232.611 -22864194.801 10 0 60189 47700.00000 0 12176881.205 -2540955.452 -22257557.700 10 0 60189 48600.00000 0 14125819.796 -692569.319 -21218148.741 10 0 60189 49500.00000 0 16087334.130 909312.084 -19766254.790 10 0 60189 50400.00000 0 17997910.682 2242923.527 -17930176.292 10 0 60189 51300.00000 0 19792786.944 3299008.873 -15745671.239 10 0 60189 52200.00000 0 21408585.220 4080949.793 -13255254.518 10 0 60189 53100.00000 0 22785905.804 4604358.981 -10507366.539 10 0 60189 54000.00000 0 23871771.064 4896156.870 -7555427.495 10 0 60189 54900.00000 0 24621818.188 4993172.427 -4456795.898 10 0 60189 55800.00000 0 25002148.900 4940328.609 -1271651.943 10 0 60189 56700.00000 0 24990758.932 4788490.379 1938172.322 10 0 60189 57600.00000 0 24578487.708 4592067.254 5110393.054 10 0 60189 58500.00000 0 23769448.849 4406472.437 8183481.383 10 0 60189 59400.00000 0 22580923.903 4285546.418 11097853.430 10 0 60189 60300.00000 0 21042724.095 4279054.121 13797020.657 10 0 60189 61200.00000 0 19196047.062 4430361.343 16228678.525 10 0 60189 62100.00000 0 17091876.389 4774388.465 18345712.948 10 0 60189 63000.00000 0 14788990.549 5335927.628 20107105.761 10 0 60189 63900.00000 0 12351663.808 6128394.293 21478722.482 10 0 60189 64800.00000 0 9847154.123 7153065.902 22433967.973 10 0 60189 65700.00000 0 7343081.517 8398840.207 22954298.110 10 0 60189 66600.00000 0 4904804.820 9842524.242 23029578.107 10 0 60189 67500.00000 0 2592904.496 11449643.048 22658280.913 10 0 60189 68400.00000 0 460874.879 13175735.774 21847521.811 10 0 60189 69300.00000 0 -1446879.402 14968086.535 20612928.180 10 0 60189 70200.00000 0 -3096660.534 16767819.321 18978346.249 10 0 60189 71100.00000 0 -4466641.614 18512270.868 16975389.558 10 0 60189 72000.00000 0 -5547529.809 20137543.513 14642836.756 10 0 60189 72900.00000 0 -6342701.274 21581132.034 12025889.266 10 0 60189 73800.00000 0 -6867802.525 22784514.910 9175302.133 10 0 60189 74700.00000 0 -7149835.171 23695601.264 6146404.135 10 0 60189 75600.00000 0 -7225762.823 24270930.330 2998025.636 10 0 60189 76500.00000 0 -7140699.184 24477530.173 -208645.161 10 0 60189 77400.00000 0 -6945754.353 24294356.445 -3411255.052 10 0 60189 78300.00000 0 -6695631.062 23713249.405 -6547504.090 10 0 60189 79200.00000 0 -6446073.434 22739367.774 -9556364.744 10 0 60189 80100.00000 0 -6251277.366 21391080.091 -12379277.309 10 0 60189 81000.00000 0 -6161373.310 19699317.286 -14961297.380 10 0 60189 81900.00000 0 -6220089.278 17706413.063 -17252172.197 10 0 60189 82800.00000 0 -6462694.105 15464480.435 -19207324.221 10 0 60189 83700.00000 0 -6914309.081 13033392.338 -20788722.363 10 0 60189 84600.00000 0 -7588660.205 10478450.887 -21965623.710 10 0 60189 85500.00000 0 -8487324.568 7867842.826 -22715171.350 10 0 60190 0.00000 0 -9599503.160 5269987.726 -23022836.875 10 0 60190 900.00000 0 -10902330.832 2750888.092 -22882699.404 10 0 60190 1800.00000 0 -12361709.240 371595.071 -22297555.818 10 0 60190 2700.00000 0 -13933629.986 -1814109.795 -21278861.008 10 0 60190 3600.00000 0 -15565931.199 -3761717.519 -19846499.209 10 0 60190 4500.00000 0 -17200414.429 -5437598.290 -18028391.396 10 0 60190 5400.00000 0 -18775233.045 -6820145.928 -15859946.634 10 0 60190 6300.00000 0 -20227451.892 -7900413.984 -13383368.222 10 0 60190 7200.00000 0 -21495670.802 -8682218.674 -10646828.384 10 0 60190 8100.00000 0 -22522601.822 -9181706.221 -7703527.729 10 0 60190 9000.00000 0 -23257491.993 -9426404.683 -4610658.021 10 0 60190 9900.00000 0 -23658289.991 -9453801.890 -1428288.724 10 0 60190 10800.00000 0 -23693465.765 -9309511.010 1781800.765 10 0 60190 11700.00000 0 -23343406.935 -9045102.399 4957320.251 10 0 60190 12600.00000 0 -22601333.557 -8715694.294 8036675.746 10 0 60190 13500.00000 0 -21473693.057 -8377404.739 10960160.858 10 0 60190 14400.00000 0 -19980018.967 -8084772.716 13671109.606 10 0 60190 15300.00000 0 -18152259.419 -7888257.461 16116988.589 10 0 60190 16200.00000 0 -16033603.361 -7831921.334 18250407.904 10 0 60190 17100.00000 0 -13676853.169 -7951393.719 20030031.948 10 0 60190 18000.00000 0 -11142410.940 -8272201.495 21421373.290 10 0 60190 18900.00000 0 -8495961.469 -8808536.208 22397455.097 10 0 60190 19800.00000 0 -5805947.201 -9562509.912 22939330.092 10 0 60190 20700.00000 0 -3140938.841 -10523931.316 23036446.577 10 0 60190 21600.00000 0 -567009.417 -11670612.425 22686854.794 10 0 60190 22500.00000 0 1854780.526 -12969193.874 21897249.604 10 0 60190 23400.00000 0 4070683.505 -14376455.699 20682848.314 10 0 60190 24300.00000 0 6036256.973 -15841060.082 19067105.324 10 0 60190 25200.00000 0 7717964.605 -17305654.519 17081268.167 10 0 60190 26100.00000 0 9094320.976 -18709248.513 14763782.418 10 0 60190 27000.00000 0 10156532.378 -19989765.139 12159555.880 10 0 60190 27900.00000 0 10908607.308 -21086660.989 9319095.224 10 0 60190 28800.00000 0 11366932.244 -21943504.560 6297531.035 10 0 60190 29700.00000 0 11559330.762 -22510404.349 3153549.653 10 0 60190 30600.00000 0 11523645.855 -22746183.769 -51747.632 10 0 60190 31500.00000 0 11305905.685 -22620210.195 -3256035.621 10 0 60190 32400.00000 0 10958150.784 -22113799.832 -6396982.807 10 0 60190 33300.00000 0 10536015.328 -21221137.831 -9413471.103 10 0 60190 34200.00000 0 10096165.743 -19949673.584 -12246792.995 10 0 60190 35100.00000 0 9693706.096 -18319973.356 -14841801.895 10 0 60190 36000.00000 0 9379661.132 -16365035.482 -17147992.466 10 0 60190 36900.00000 0 9198644.534 -14129096.170 -19120489.155 10 0 60190 37800.00000 0 9186811.928 -11665975.511 -20720923.267 10 0 60190 38700.00000 0 9370185.963 -9037032.648 -21918181.325 10 0 60190 39600.00000 0 9763424.782 -6308815.494 -22689010.135 10 0 60190 40500.00000 0 10369086.310 -3550503.008 -23018467.063 10 0 60190 41400.00000 0 11177419.626 -831246.556 -22900207.085 10 0 60190 42300.00000 0 12166692.377 1782479.101 -22336601.471 10 0 60190 43200.00000 0 13304040.463 4229405.304 -21338686.194 10 0 60190 44100.00000 0 14546804.251 6455774.854 -19925941.479 10 0 60190 45000.00000 0 15844294.999 8417328.094 -18125907.065 10 0 60190 45900.00000 0 17139917.114 10080888.138 -15973640.974 10 0 60190 46800.00000 0 18373556.874 11425480.570 -13511032.466 10 0 60190 47700.00000 0 19484137.000 12442942.429 -10785982.817 10 0 60190 48600.00000 0 20412229.510 13137996.809 -7851470.015 10 0 60190 49500.00000 0 21102616.831 13527791.811 -4764515.831 10 0 60190 50400.00000 0 21506693.350 13640925.016 -1585075.621 10 0 60190 51300.00000 0 21584606.330 13515996.218 1625127.264 10 0 60190 52200.00000 0 21307046.186 13199750.861 4803799.591 10 0 60190 53100.00000 0 20656610.857 12744893.636 7889285.370 10 0 60190 54000.00000 0 19628687.029 12207665.330 10821758.540 10 0 60190 54900.00000 0 18231811.179 11645285.674 13544378.180 10 0 60190 55800.00000 0 16487495.212 11113370.263 16004384.162 10 0 60190 56700.00000 0 14429523.713 10663430.340 18154112.521 10 0 60190 57600.00000 0 12102751.692 10340560.520 19951911.609 10 0 60190 58500.00000 0 9561452.306 10181411.387 21362942.084 10 0 60190 59400.00000 0 6867282.417 10212531.866 22359846.097 10 0 60190 60300.00000 0 4086949.433 10449150.766 22923273.546 10 0 60190 61200.00000 0 1289675.042 10894448.654 23042255.775 10 0 60190 62100.00000 0 -1455440.316 11539350.851 22714419.870 10 0 60190 63000.00000 0 -4082044.404 12362850.850 21946039.402 10 0 60190 63900.00000 0 -6529043.879 13332851.475 20751920.306 10 0 60190 64800.00000 0 -8742895.767 14407489.580 19155123.425 10 0 60190 65700.00000 0 -10679585.525 15536889.978 17186528.159 10 0 60190 66600.00000 0 -12306210.112 16665276.106 14884244.555 10 0 60190 67500.00000 0 -13602100.633 17733349.800 12292884.086 10 0 60190 68400.00000 0 -14559437.993 18680840.824 9462702.173 10 0 60190 69300.00000 0 -15183335.973 19449119.150 6448628.248 10 0 60190 70200.00000 0 -15491388.382 19983759.845 3309201.659 10 0 60190 71100.00000 0 -15512699.493 20236951.840 105433.844 10 0 60190 72000.00000 0 -15286438.864 20169648.040 -3100380.848 10 0 60190 72900.00000 0 -14859981.936 19753364.787 -6245882.089 10 0 60190 73800.00000 0 -14286715.554 18971553.334 -9269863.817 10 0 60190 74700.00000 0 -13623601.943 17820484.002 -12113473.077 10 0 60190 75600.00000 0 -12928605.062 16309604.329 -14721363.230 10 0 60190 76500.00000 0 -12258089.124 14461354.875 -17042778.199 10 0 60190 77400.00000 0 -11664300.229 12310449.351 -19032545.939 10 0 60190 78300.00000 0 -11193038.380 9902648.469 -20651961.364 10 0 60190 79200.00000 0 -10881618.860 7293078.258 -21869541.305 10 0 60190 80100.00000 0 -10757209.522 4544162.802 -22661636.856 10 0 60190 81000.00000 0 -10835614.345 1723257.429 -23012891.389 10 0 60190 81900.00000 0 -11120554.603 -1099919.210 -22916535.711 10 0 60190 82800.00000 0 -11603477.785 -3855947.410 -22374515.000 10 0 60190 83700.00000 0 -12263902.071 -6478352.587 -21397445.526 10 0 60190 84600.00000 0 -13070281.515 -8906125.763 -20004402.349 10 0 60190 85500.00000 0 -13981355.116 -11086014.134 -18222542.474 10 0 60191 0.00000 0 -14947922.505 -12974487.157 -16086571.257 10 0 60191 900.00000 0 -15914971.618 -14539298.317 -13638061.446 10 0 60191 1800.00000 0 -16824067.076 -15760576.350 -10924641.252 10 0 60191 2700.00000 0 -17615900.072 -16631405.235 -7999063.616 10 0 60191 3600.00000 0 -18232890.760 -17157867.798 -4918177.808 10 0 60191 4500.00000 0 -18621733.774 -17358553.890 -1741822.530 10 0 60191 5400.00000 0 -18735779.343 -17263555.314 1468337.480 10 0 60191 6300.00000 0 -18537149.602 -16912991.315 4650008.524 10 0 60191 7200.00000 0 -17998500.861 -16355128.025 7741475.179 10 0 60191 8100.00000 0 -17104357.637 -15644172.097 10682794.252 10 0 60191 9000.00000 0 -15851962.223 -14837832.192 13416952.362 10 0 60191 9900.00000 0 -14251603.930 -13994751.361 15890965.010 10 0 60191 10800.00000 0 -12326413.835 -13171918.474 18056896.349 10 0 60191 11700.00000 0 -10111633.038 -12422167.346 19872780.623 10 0 60191 12600.00000 0 -7653384.207 -11791868.241 21303428.209 10 0 60191 13500.00000 0 -5006996.573 -11318908.223 22321101.542 10 0 60191 14400.00000 0 -2234952.814 -11031044.554 22906048.630 10 0 60191 15300.00000 0 595458.250 -10944699.843 23046884.437 10 0 60191 16200.00000 0 3414687.267 -11064249.278 22740813.122 10 0 60191 17100.00000 0 6153564.200 -11381829.907 21993686.865 10 0 60191 18000.00000 0 8745924.378 -11877680.377 20819899.801 10 0 60191 18900.00000 0 11131113.072 -12520997.511 19242118.484 10 0 60191 19800.00000 0 13256265.704 -13271274.642 17290853.126 10 0 60191 20700.00000 0 15078269.621 -14080066.409 15003876.848 10 0 60191 21600.00000 0 16565326.293 -14893106.668 12425503.031 10 0 60191 22500.00000 0 17698049.010 -15652691.093 9605733.694 10 0 60191 23400.00000 0 18470050.296 -16300224.416 6599294.600 10 0 60191 24300.00000 0 18887994.411 -16778824.909 3464575.237 10 0 60191 25200.00000 0 18971112.785 -17035875.740 262494.062 10 0 60191 26100.00000 0 18750202.802 -17025414.610 -2944688.732 10 0 60191 27000.00000 0 18266152.402 -16710259.604 -6094587.359 10 0 60191 27900.00000 0 17568053.118 -16063779.974 -9125911.092 10 0 60191 28800.00000 0 16710981.825 -15071235.596 -11979664.725 10 0 60191 29700.00000 0 15753545.653 -13730626.973 -14600304.536 10 0 60191 30600.00000 0 14755294.593 -12053018.490 -16936826.419 10 0 60191 31500.00000 0 13774111.934 -10062319.987 -18943764.248 10 0 60191 32400.00000 0 12863693.447 -7794534.701 -20582078.591 10 0 60191 33300.00000 0 12071222.278 -5296504.217 -21819918.254 10 0 60191 34200.00000 0 11435337.983 -2624202.281 -22633239.848 10 0 60191 35100.00000 0 10984485.401 159351.704 -23006273.534 10 0 60191 36000.00000 0 10735712.791 2986472.895 -22931826.254 10 0 60191 36900.00000 0 10693969.485 5787385.992 -22411416.946 10 0 60191 37800.00000 0 10851932.069 8492888.173 -21455241.573 10 0 60191 38700.00000 0 11190365.769 11036989.566 -20081969.004 10 0 60191 39600.00000 0 11679005.070 13359421.868 -18318372.070 10 0 60191 40500.00000 0 12277915.762 15407911.427 -16198801.237 10 0 60191 41400.00000 0 12939280.298 17140122.956 -13764511.315 10 0 60191 42300.00000 0 13609530.565 18525193.905 -11062854.551 10 0 60191 43200.00000 0 14231737.531 19544796.731 -8146355.977 10 0 60191 44100.00000 0 14748156.489 20193686.048 -5071689.221 10 0 60191 45000.00000 0 15102820.091 20479709.320 -1898572.992 10 0 60191 45900.00000 0 15244069.435 20423282.197 1311390.029 10 0 60191 46800.00000 0 15126916.204 20056352.034 4495909.106 10 0 60191 47700.00000 0 14715136.039 19420894.541 7593212.712 10 0 60191 48600.00000 0 13983004.813 18567007.858 10543243.625 10 0 60191 49500.00000 0 12916604.486 17550685.081 13288818.833 10 0 60191 50400.00000 0 11514643.419 16431359.399 15776731.966 10 0 60191 51300.00000 0 9788756.279 15269325.170 17958777.444 10 0 60191 52200.00000 0 7763270.372 14123143.102 19792677.184 10 0 60191 53100.00000 0 5474447.334 13047138.057 21242892.703 10 0 60191 54000.00000 0 2969230.778 12089093.745 22281307.760 10 0 60191 54900.00000 0 303550.691 11288240.279 22887769.124 10 0 60191 55800.00000 0 -2459746.317 10673618.171 23050475.607 10 0 60191 56700.00000 0 -5253256.580 10262886.750 22766208.228 10 0 60191 57600.00000 0 -8007572.463 10061626.513 22040397.083 10 0 60191 58500.00000 0 -10653924.589 10063164.590 20887023.335 10 0 60191 59400.00000 0 -13126804.939 10248930.765 19328357.579 10 0 60191 60300.00000 0 -15366463.100 10589329.587 17394538.715 10 0 60191 61200.00000 0 -17321172.682 11045092.464 15123000.422 10 0 60191 62100.00000 0 -18949174.127 11569053.559 12557755.161 10 0 60191 63000.00000 0 -20220213.114 12108275.236 9748548.522 10 0 60191 63900.00000 0 -21116610.279 12606433.836 6749899.468 10 0 60191 64800.00000 0 -21633817.310 13006365.127 3620044.501 10 0 60191 65700.00000 0 -21780435.910 13252661.608 419806.042 10 0 60191 66600.00000 0 -21577698.658 13294211.179 -2788592.809 10 0 60191 67500.00000 0 -21058433.608 13086568.760 -5942743.589 10 0 60191 68400.00000 0 -20265556.407 12594059.255 -8981273.524 10 0 60191 69300.00000 0 -19250153.899 11791521.420 -11845047.556 10 0 60191 70200.00000 0 -18069240.618 10665617.358 -14478327.055 10 0 60191 71100.00000 0 -16783283.504 9215650.794 -16829861.786 10 0 60191 72000.00000 0 -15453599.979 7453858.146 -18853893.113 10 0 60191 72900.00000 0 -14139739.799 5405158.832 -20511048.492 10 0 60191 73800.00000 0 -12896961.494 3106374.139 -21769109.574 10 0 60191 74700.00000 0 -11773910.061 604946.509 -22603638.996 10 0 60191 75600.00000 0 -10810593.649 -2042787.933 -22998453.857 10 0 60191 76500.00000 0 -10036744.145 -4773701.983 -22945937.039 10 0 60191 77400.00000 0 -9470630.102 -7520267.851 -22447180.713 10 0 60191 78300.00000 0 -9118371.173 -10213136.262 -21511959.691 10 0 60191 79200.00000 0 -8973781.939 -12783797.198 -20158535.497 10 0 60191 80100.00000 0 -9018750.685 -15167211.823 -18413295.363 10 0 60191 81000.00000 0 -9224136.067 -17304306.571 -16310233.391 10 0 60191 81900.00000 0 -9551142.846 -19144226.099 -13890284.196 10 0 60191 82800.00000 0 -9953117.677 -20646251.929 -11200522.225 10 0 60191 83700.00000 0 -10377688.320 -21781307.695 -8293242.483 10 0 60191 84600.00000 0 -10769155.196 -22532989.175 -5224940.794 10 0 60191 85500.00000 0 -11071033.685 -22898077.290 -2055213.688 99